JR2LGW-13 Weather Reports


time (UTC)temp
C
wind
direction
speed
KPH
gust
KPH
rain 1hr
cm
rain 24hr
cm
rain mn
cm
humidity
%
barometer
mb
20260502123345 19 325 4.8 9.7 0.00 0.00 0.00 57 1013.3
20260502122445 20 318 4.8 6.4 0.00 0.00 0.00 55 1013.2
20260502121545 20 328 4.8 9.7 0.00 0.00 0.00 54 1013.4
20260502120645 20 332 3.2 6.4 0.00 0.00 0.00 54 1013.3
20260502115745 20 323 4.8 9.7 0.00 0.00 0.00 53 1013.4
20260502114845 20 299 6.4 12.9 0.00 0.00 0.00 52 1013.1
20260502113945 20 282 8.0 17.7 0.00 0.00 0.00 52 1013.1
20260502113046 20 280 9.7 16.1 0.00 0.00 0.00 53 1012.9
20260502112145 20 287 8.0 17.7 0.00 0.00 0.00 54 1012.8
20260502111246 20 283 8.0 14.5 0.00 0.00 0.00 54 1012.5
20260502110345 20 290 11.3 20.9 0.00 0.00 0.00 54 1012.2
20260502105445 20 287 14.5 27.4 0.00 0.00 0.00 54 1012.0
20260502104545 20 289 14.5 27.4 0.00 0.00 0.00 56 1012.0
20260502103646 20 283 14.5 22.5 0.00 0.00 0.00 55 1011.8
20260502102745 20 283 12.9 24.1 0.00 0.00 0.00 55 1011.7
20260502101845 20 289 12.9 20.9 0.00 0.00 0.00 56 1011.5
20260502090645 21 279 17.7 29.0 0.00 0.00 0.00 54 1010.8
20260502070945 24 316 22.5 35.4 0.00 0.03 0.00 38 1009.1
20260502070046 24 304 22.5 37.0 0.00 0.03 0.00 37 1009.0
20260502065146 24 304 22.5 41.8 0.00 0.03 0.00 38 1008.9
20260502064245 24 300 24.1 40.2 0.00 0.03 0.00 37 1008.7
20260502063345 24 304 24.1 38.6 0.00 0.03 0.00 38 1008.8
20260502062445 24 305 24.1 35.4 0.00 0.03 0.00 39 1008.6
20260502060646 24 299 22.5 41.8 0.00 0.03 0.00 38 1008.5
20260502055745 24 307 24.1 41.8 0.00 0.03 0.00 39 1008.5
20260502054845 24 296 20.9 32.2 0.00 0.03 0.00 40 1008.6
20260502053945 24 294 22.5 33.8 0.00 0.03 0.00 40 1008.5
20260502053045 24 302 22.5 41.8 0.00 0.03 0.00 40 1008.6
20260502052145 24 302 22.5 38.6 0.00 0.03 0.00 40 1008.6
20260502051245 24 300 22.5 41.8 0.00 0.03 0.00 41 1008.6
20260502050346 24 295 20.9 38.6 0.00 0.03 0.00 43 1008.5
20260502045445 24 292 25.7 46.7 0.00 0.03 0.00 42 1008.5
20260502044545 23 289 27.4 41.8 0.00 0.03 0.00 41 1008.8
20260502043645 23 300 22.5 41.8 0.00 0.03 0.00 42 1008.7
20260502042745 23 294 24.1 40.2 0.00 0.03 0.00 43 1008.7
20260502041845 23 299 24.1 35.4 0.00 0.03 0.00 45 1008.8
20260502035145 23 302 24.1 37.0 0.00 0.03 0.00 44 1008.9
20260502034246 23 291 24.1 38.6 0.00 0.03 0.00 44 1008.7
20260502033345 23 289 22.5 38.6 0.00 0.03 0.00 46 1008.7
20260502032446 23 291 22.5 45.1 0.00 0.03 0.00 46 1008.9
20260502031546 22 300 24.1 37.0 0.00 0.03 0.00 46 1009.0
20260502030645 22 290 27.4 48.3 0.00 0.03 0.00 48 1009.1
20260502024846 22 286 29.0 48.3 0.00 0.03 0.00 49 1009.0
20260502023945 22 292 25.7 43.5 0.00 0.03 0.00 49 1008.9
20260502023045 21 302 27.4 45.1 0.00 0.03 0.00 46 1009.0
20260502022145 21 308 24.1 41.8 0.00 0.03 0.00 47 1009.0
20260502021245 21 302 25.7 43.5 0.00 0.05 0.00 46 1008.9
20260502020345 21 307 25.7 41.8 0.00 0.05 0.00 46 1009.0
20260502015446 21 301 24.1 40.2 0.00 0.08 0.00 47 1008.9
20260502014545 21 303 24.1 40.2 0.00 0.08 0.00 48 1008.5
20260502012745 20 296 20.9 35.4 0.00 0.10 0.00 47 1008.5
20260502011846 20 301 20.9 35.4 0.00 0.15 0.00 50 1008.4
20260502010945 20 297 20.9 33.8 0.00 0.20 0.00 50 1008.5
20260502010045 20 291 22.5 35.4 0.00 0.25 0.00 52 1008.5
20260502005145 20 293 22.5 40.2 0.00 0.43 0.00 51 1008.3
20260502004246 20 301 20.9 32.2 0.00 0.51 0.00 52 1008.3
20260502003346 20 310 19.3 29.0 0.00 0.58 0.00 51 1008.2
20260502000645 18 308 19.3 32.2 0.00 0.58 0.00 55 1008.0
20260501235745 18 307 19.3 30.6 0.00 0.58 0.00 56 1007.9
20260501234847 18 310 19.3 30.6 0.00 0.61 0.00 57 1007.8
20260501233945 18 299 16.1 30.6 0.00 0.61 0.00 57 1008.0
20260501233046 18 307 17.7 29.0 0.00 0.61 0.00 59 1008.1
20260501231244 17 307 17.7 30.6 0.00 0.71 0.00 60 1008.0
20260501230346 17 315 17.7 30.6 0.00 0.79 0.00 61 1007.9
20260501225446 17 314 19.3 35.4 0.00 0.81 0.00 62 1007.9
20260501224546 17 299 16.1 30.6 0.00 0.84 0.00 63 1007.9
20260501222745 16 317 12.9 27.4 0.00 0.89 0.00 65 1007.7
20260501221845 16 316 12.9 25.7 0.00 0.89 0.00 65 1007.6
20260501220945 16 316 14.5 25.7 0.00 0.89 0.00 65 1007.6
20260501215145 16 321 16.1 32.2 0.00 1.09 0.00 67 1007.4
20260501214245 16 329 19.3 30.6 0.00 1.27 0.00 68 1007.0
20260501213345 15 322 22.5 40.2 0.00 1.35 0.00 68 1006.6
20260501212446 15 321 20.9 35.4 0.00 1.50 0.00 70 1006.2
20260501211544 15 322 22.5 40.2 0.00 1.57 0.00 70 1006.0
20260501204844 15 322 25.7 43.5 0.00 2.06 0.00 73 1004.9
20260501203945 15 329 27.4 43.5 0.00 2.11 0.00 73 1004.6
20260501203045 15 317 27.4 45.1 0.00 2.13 0.00 73 1004.2
20260501202146 15 321 30.6 48.3 0.00 2.16 0.00 73 1003.9
20260501201244 15 322 25.7 43.5 0.00 2.21 0.00 73 1003.7
20260501200346 15 322 27.4 45.1 0.00 2.21 0.00 72 1003.3
20260501195446 15 326 27.4 43.5 0.00 2.26 0.00 73 1003.1
20260501194546 15 325 22.5 41.8 0.00 2.31 0.00 72 1002.8
20260501193644 15 323 27.4 45.1 0.00 2.39 0.00 72 1002.6
20260501192745 15 321 27.4 48.3 0.00 2.49 0.00 72 1002.3
20260501191845 15 317 30.6 53.1 0.00 2.59 0.00 73 1002.1
20260501190944 15 316 24.1 38.6 0.00 2.62 0.00 74 1002.2
20260501190045 15 315 20.9 38.6 0.00 2.62 0.00 75 1002.0
20260501184246 14 314 19.3 33.8 0.00 2.62 0.00 77 1002.5
20260501182445 14 297 20.9 37.0 0.00 2.62 0.00 78 1002.5
20260501181546 14 298 20.9 32.2 0.00 2.62 0.00 78 1002.7
20260501180645 14 298 24.1 45.1 0.00 2.64 0.00 78 1002.7
20260501175746 14 305 22.5 37.0 0.00 2.67 0.00 79 1003.0
20260501174845 14 302 22.5 45.1 0.00 2.69 0.00 79 1002.8
20260501173945 14 297 24.1 45.1 0.00 2.79 0.00 78 1002.9
20260501173044 14 308 20.9 43.5 0.00 2.84 0.00 77 1002.7
20260501171244 15 309 22.5 45.1 0.00 2.84 0.00 75 1002.7
20260501170345 15 315 22.5 38.6 0.00 2.84 0.00 75 1002.8
20260501165445 15 315 14.5 33.8 0.00 2.87 0.00 75 1002.3
20260501163646 15 312 19.3 35.4 0.00 2.87 0.00 74 1002.5
20260501162745 15 317 20.9 37.0 0.00 2.87 0.00 74 1002.3
20260501161845 15 313 16.1 41.8 0.00 2.90 0.00 74 1002.2
20260501160944 15 300 17.7 30.6 0.00 2.90 0.00 74 1002.3
20260501160045 15 300 16.1 29.0 0.00 2.90 0.00 74 1002.3
20260501154246 15 285 16.1 29.0 0.00 2.90 0.00 74 1002.2
20260501153345 15 296 17.7 35.4 0.00 2.90 0.00 74 1002.3
20260501152444 14 290 14.5 24.1 0.00 2.90 0.00 75 1002.2
20260501151546 14 285 16.1 29.0 0.00 2.92 0.00 75 1002.2
20260501150644 14 277 16.1 37.0 0.00 2.95 0.00 75 1002.4
20260501145745 14 280 16.1 30.6 0.00 2.97 2.97 74 1002.3
20260501144845 15 289 16.1 27.4 0.00 2.97 2.97 73 1002.2
20260501143945 15 285 20.9 40.2 0.00 3.00 2.97 72 1001.9
20260501143045 15 300 19.3 30.6 0.00 3.02 2.97 72 1001.8